[[{"header":{"parameterUnit":"m.s-1","parameterCategory":1,"la1":30.2991,"la2":30.254,"lo1":-89.0895,"lo2":-89.0444,"dy":0.0017,"dx":0.0017,"nx":28,"ny":28,"refTime":"2025-06-19T09:00:00:Z","depth":0,"parameterNumber":2,"parameterNumberName":"U-component_of_WINDS"},"data":[0,0,0,0,0,0,0,0,0,0,0,0,0,0,0,0,0,0,0,0,0,0,0,0,0,0,0,0,0,0,0,0,0,0,0,0,0,0,0,0,0,0,0,0,0,0,0,0,0,0,0,0,0,0,0,0,0,0,2.8727,2.8728,0,2.8787,2.8788,2.8789,2.8728,2.8726,2.8724,2.8721,2.8783,2.8787,2.879,0,0,0,0,0,0,0,0,0,0,0,0,0,2.8559,2.8563,2.8727,2.8728,2.8729,2.8787,2.8788,2.8789,2.8729,2.8726,2.8723,2.872,2.8782,2.8786,2.8791,0,0,0,0,0,0,0,0,0,0,0,0,0,2.8627,2.8564,2.8727,2.8706,2.8705,2.8787,2.8788,2.8789,2.8729,2.8726,2.8722,2.8719,2.878,2.8786,2.8791,2.8898,0,0,2.8809,2.8812,0,0,0,0,0,0,0,0,2.8623,2.8633,2.8708,2.8707,2.8706,2.8747,2.8751,2.8826,2.873,2.872,2.8721,2.8717,2.8774,2.878,2.8799,2.8901,2.8903,2.881,2.8813,2.8816,2.8817,0,0,0,0,0,0,0,2.8619,2.863,2.8751,2.8709,2.8708,2.8693,2.8699,2.8765,2.8766,2.8721,2.8716,2.8724,2.8772,2.8793,2.88,2.8904,2.8809,2.8815,2.8818,2.882,2.9093,2.9097,0,0,0,0,0,0,2.8616,2.8627,2.8749,2.8753,2.8655,2.8699,2.8705,2.8737,2.8765,2.8766,2.8727,2.8721,2.8785,2.8793,2.8802,2.8926,2.8815,2.8821,2.8824,2.909,2.9094,2.9098,0,0,0,0,0,0,2.8613,2.8628,2.8747,2.8689,2.8703,2.8705,2.8742,2.874,2.8761,2.877,2.877,2.8749,2.8783,2.8794,2.8874,2.8927,2.8823,2.8829,2.9085,2.9091,2.9096,2.9176,0,0,0,0,0,0,2.8608,2.8627,2.8668,2.869,2.8706,2.8818,2.8745,2.8744,2.8771,2.8764,2.879,2.8791,2.8781,2.8865,2.8879,2.8933,2.8833,2.908,2.9088,2.9095,2.9169,2.9184,2.9197,0,0,0,0,0,2.8603,2.8689,2.867,2.8685,2.8757,2.8821,2.883,2.8817,2.8776,2.8816,2.8822,2.879,2.892,2.8874,2.8889,2.8946,2.9077,2.9086,2.9094,2.9162,2.9181,2.9196,0,0,0,0,0,0,2.8673,2.8691,2.8671,2.8767,2.8793,2.8811,2.8862,2.8838,2.8876,2.8868,2.885,2.8856,2.894,2.8951,2.89,2.9049,2.8991,2.9003,2.9038,2.9056,2.9069,2.9064,2.8838,0,0,0,0,0,2.87,2.8751,2.8764,2.8847,2.8861,2.886,2.8887,2.8874,2.8901,2.8912,2.8923,2.895,2.8996,2.9027,2.907,2.9171,2.9174,2.9217,2.9231,2.9242,2.9252,2.9303,2.9321,2.9126,2.9126,2.9126,0,0,2.8755,2.8772,2.8805,2.8862,2.888,2.8932,2.8869,2.8928,2.8966,2.892,2.8996,2.9005,2.9034,2.9124,2.9164,2.9135,2.9307,2.9253,2.9262,2.9266,2.9314,2.9332,2.9349,2.9132,2.9131,2.913,0,0,2.8883,2.8901,2.8971,2.8991,2.902,2.9018,2.9035,2.9057,2.9061,2.9136,2.9102,2.9148,2.9229,2.9249,2.927,2.9404,2.9375,2.9419,2.9492,2.9542,2.9557,2.957,2.9616,2.9632,2.9429,2.943,2.943,0,2.8948,2.9025,2.901,2.907,2.9095,2.9056,2.9126,2.9146,2.9188,2.9206,2.9174,2.9272,2.9289,2.9382,2.9414,2.9434,2.9451,2.9415,2.9556,2.957,2.9582,2.9624,2.9642,2.9434,2.9434,2.9433,2.9433,0,2.9103,2.9157,2.921,2.925,2.9282,2.9347,2.934,2.9374,2.9358,2.9359,2.9436,2.9454,2.9499,2.9521,2.9507,2.9611,2.9592,2.9559,2.95,2.9605,2.9645,2.9662,2.9441,2.944,2.9438,2.9437,0,0,2.9275,2.9306,2.9325,2.9342,2.9371,2.9412,2.9475,2.9518,2.9546,2.9576,2.9627,2.9695,2.9664,2.9688,2.9676,2.972,2.9821,2.9681,2.9681,2.9704,2.9934,2.9958,2.9977,2.9803,2.9807,2.9809,2.9931,0,2.9401,2.9509,2.9497,2.96,2.9648,2.9612,2.9666,2.9689,2.9691,2.9733,2.9736,2.9783,2.974,2.9753,2.9796,2.98,2.9867,2.9792,2.9849,2.9851,2.984,2.9998,3.0024,3.0138,2.9947,2.9949,2.9951,0,2.9562,2.9597,2.9704,2.9723,2.9743,2.9792,2.983,2.9871,2.9895,2.9894,2.9921,2.99,2.9962,2.9904,2.9987,2.9936,2.9958,2.9964,2.9968,2.9971,2.9906,3.0003,3.0174,3.019,2.9976,2.9974,2.9972,0,2.9673,2.9748,2.9821,2.9837,2.9862,2.9896,2.9908,2.993,2.9956,2.9989,3.0006,3.0047,3.0068,3.0099,3.009,3.0049,3.0174,3.0116,3.0173,3.0174,3.02,3.0198,3.0374,3.0219,3.0219,3.0218,3.0218,0,2.9814,2.988,2.9871,2.9916,2.9988,2.9973,3.0046,3.0053,3.0072,3.0117,3.0089,3.0131,3.0118,3.0159,3.0153,3.0221,3.0232,3.0231,3.0228,3.0232,3.0232,3.0245,3.0236,3.0223,3.0222,3.0221,3.022,0,2.995,2.9946,3.0023,3.004,3.0046,3.0099,3.0113,3.0154,3.0155,3.0211,3.0224,3.0225,3.0272,3.0266,3.032,3.0315,3.0399,3.0388,3.039,3.0387,3.0443,3.0437,3.0632,3.0656,3.0488,3.0489,3.0491,0,3.0038,3.0088,3.011,3.0138,3.0152,3.0198,3.0224,3.0211,3.024,3.0271,3.0308,3.0353,3.0387,3.0464,3.0469,3.0509,3.0497,3.0563,3.0503,3.0504,3.0494,3.049,3.0494,3.0574,3.0576,3.0577,3.0579,0,3.0194,3.019,3.0229,3.0267,3.03,3.0329,3.0356,3.0381,3.037,3.0403,3.0451,3.0478,3.0531,3.0575,3.0613,3.0624,3.0599,3.0598,3.0612,3.0616,3.0614,3.0613,3.0419,3.0593,3.0591,3.059,3.0589,3.0589,3.0307,3.0349,3.037,3.0414,3.0433,3.0459,3.0497,3.0503,3.0542,3.0584,3.0574,3.0627,3.0649,3.0697,3.0712,3.0753,3.0729,3.0751,3.0756,3.0761,3.0766,3.061,3.076,3.076,3.0759,3.0759,3.0759,0,3.0459,3.0471,3.0512,3.055,3.0584,3.0558,3.0586,3.0616,3.0663,3.0686,3.072,3.0774,3.0816,3.0824,3.0864,3.0895,3.0884,3.0905,3.0901,3.0904,3.0787,3.0769,3.0913,3.0913,3.0913,3.0913,3.0913,3.0913,3.0542,3.061,3.0608,3.0685,3.0697,3.0748,3.0766,3.0789,3.0806,3.0867,3.0902,3.0907,3.0923,3.0963,3.1,3.1001,3.1016,3.1041,3.1038,3.0928,3.0912,3.0898,3.088,3.1045,3.1046,3.1151,3.1152,3.1153]},{"header":{"parameterUnit":"m.s-1","parameterCategory":1,"la1":30.2991,"la2":30.254,"lo1":-89.0895,"lo2":-89.0444,"dy":0.0017,"dx":0.0017,"nx":28,"ny":28,"refTime":"2025-06-19T09:00:00:Z","depth":0,"parameterNumber":3,"parameterNumberName":"V-component_of_WINDS"},"data":[0,0,0,0,0,0,0,0,0,0,0,0,0,0,0,0,0,0,0,0,0,0,0,0,0,0,0,0,0,0,0,0,0,0,0,0,0,0,0,0,0,0,0,0,0,0,0,0,0,0,0,0,0,0,0,0,0,0,3.5968,3.597,0,3.6088,3.6089,3.6091,3.6095,3.6093,3.6092,3.609,3.6207,3.6211,3.6215,0,0,0,0,0,0,0,0,0,0,0,0,0,3.5737,3.5742,3.5968,3.597,3.5971,3.6088,3.6089,3.6091,3.6095,3.6093,3.6091,3.609,3.6205,3.6211,3.6216,0,0,0,0,0,0,0,0,0,0,0,0,0,3.5845,3.5743,3.5968,3.5987,3.599,3.6087,3.6089,3.6091,3.6095,3.6093,3.6091,3.6089,3.6204,3.621,3.6217,3.63,0,0,3.6237,3.624,0,0,0,0,0,0,0,0,3.5839,3.5854,3.5983,3.5986,3.599,3.6074,3.6051,3.6161,3.6096,3.6055,3.609,3.6088,3.6164,3.6174,3.6201,3.6306,3.6311,3.6237,3.6241,3.6244,3.6246,0,0,0,0,0,0,0,3.5832,3.5849,3.6015,3.5985,3.5989,3.5988,3.6001,3.6072,3.612,3.6059,3.6059,3.6074,3.6165,3.6194,3.6203,3.6313,3.6237,3.6243,3.6247,3.625,3.6491,3.6494,0,0,0,0,0,0,3.5821,3.5842,3.6012,3.6019,3.5908,3.5994,3.6009,3.6049,3.6119,3.6128,3.6075,3.6073,3.6184,3.6196,3.6208,3.631,3.6244,3.6251,3.6254,3.6489,3.6492,3.6495,0,0,0,0,0,0,3.5816,3.5836,3.6007,3.5931,3.5953,3.6,3.6046,3.6053,3.6082,3.6132,3.614,3.6096,3.6183,3.6198,3.6278,3.6314,3.6254,3.626,3.6486,3.649,3.6493,3.6515,0,0,0,0,0,0,3.581,3.5834,3.5868,3.5932,3.5957,3.6077,3.6048,3.6057,3.6094,3.6092,3.6154,3.6162,3.6182,3.6268,3.6284,3.6322,3.6265,3.6483,3.6488,3.6492,3.6511,3.6519,3.6526,0,0,0,0,0,3.5801,3.5868,3.587,3.589,3.6,3.6079,3.6093,3.6117,3.6097,3.613,3.6162,3.616,3.6307,3.6276,3.6294,3.6335,3.6481,3.6486,3.6492,3.6508,3.6518,3.6525,0,0,0,0,0,0,3.5806,3.5877,3.588,3.597,3.6018,3.6079,3.6122,3.6126,3.618,3.6176,3.6201,3.6215,3.6294,3.6322,3.6285,3.6419,3.6391,3.6401,3.6397,3.6407,3.6414,3.6405,3.627,0,0,0,0,0,3.5818,3.5878,3.5936,3.6009,3.6034,3.6074,3.6109,3.6123,3.6174,3.6194,3.6232,3.6279,3.6336,3.6373,3.6429,3.6516,3.6528,3.6552,3.656,3.6565,3.6573,3.662,3.6631,3.6513,3.6512,3.6512,0,0,3.5842,3.5888,3.5924,3.6012,3.6051,3.611,3.6091,3.6155,3.6199,3.6203,3.6281,3.631,3.6365,3.6448,3.6487,3.6474,3.6608,3.6572,3.6576,3.6581,3.6626,3.6638,3.6647,3.6516,3.6516,3.6515,0,0,3.5917,3.5959,3.6024,3.6065,3.6125,3.6152,3.6167,3.6228,3.6248,3.6327,3.6332,3.6383,3.6481,3.6519,3.6552,3.6641,3.664,3.6658,3.6695,3.6741,3.675,3.6759,3.6789,3.68,3.6666,3.6666,3.6666,0,3.5939,3.6031,3.6057,3.6122,3.6159,3.6168,3.6233,3.6271,3.6345,3.637,3.6356,3.6479,3.6516,3.6608,3.663,3.6656,3.6674,3.6651,3.6747,3.6756,3.6764,3.6793,3.6805,3.6668,3.6667,3.6667,3.6667,0,3.6054,3.6117,3.6163,3.6237,3.628,3.6344,3.6379,3.6419,3.6429,3.6456,3.6535,3.6581,3.6645,3.6668,3.6678,3.6762,3.6752,3.6742,3.6715,3.6776,3.6805,3.6816,3.667,3.6669,3.6669,3.6669,0,0,3.6134,3.6223,3.6239,3.6272,3.634,3.6389,3.6453,3.6518,3.6551,3.6602,3.6655,3.6738,3.673,3.6766,3.6781,3.6821,3.6888,3.6806,3.6808,3.6819,3.6981,3.6987,3.7,3.6888,3.6891,3.6892,3.6976,0,3.6215,3.6332,3.6358,3.6457,3.6516,3.6525,3.6581,3.6627,3.6654,3.6706,3.6734,3.6793,3.6777,3.68,3.684,3.6871,3.692,3.6866,3.6936,3.6938,3.6921,3.7015,3.7022,3.7099,3.6987,3.6989,3.699,0,3.6326,3.6381,3.6487,3.6547,3.6573,3.6623,3.6684,3.6734,3.6786,3.6803,3.6844,3.6855,3.692,3.689,3.6979,3.6941,3.6972,3.6991,3.6995,3.7001,3.6967,3.7023,3.7124,3.7135,3.7008,3.7007,3.7006,0,3.6372,3.6473,3.655,3.6579,3.6651,3.6685,3.6717,3.6767,3.6804,3.6857,3.6881,3.694,3.6972,3.7017,3.7042,3.7019,3.7129,3.7102,3.7143,3.7142,3.7165,3.7163,3.7271,3.7186,3.7186,3.7185,3.7185,0,3.6459,3.6523,3.6572,3.6619,3.669,3.6719,3.6788,3.6819,3.6864,3.6915,3.6926,3.6974,3.7005,3.7057,3.7077,3.7147,3.7161,3.7175,3.7179,3.7174,3.7172,3.7193,3.7188,3.7189,3.7188,3.7187,3.7187,0,3.6523,3.6558,3.6642,3.6704,3.6721,3.6771,3.6823,3.6868,3.6895,3.696,3.6977,3.7019,3.7081,3.7111,3.7186,3.72,3.7278,3.728,3.7261,3.7263,3.7302,3.7297,3.7426,3.7444,3.7349,3.735,3.735,0,3.6576,3.6626,3.6694,3.673,3.6763,3.6821,3.686,3.6889,3.6928,3.6992,3.7028,3.7091,3.7142,3.7239,3.7275,3.7333,3.7335,3.7376,3.7343,3.7336,3.7334,3.733,3.7335,3.7381,3.7382,3.7383,3.7384,0,3.6666,3.6681,3.6737,3.68,3.6846,3.6896,3.6945,3.6974,3.7011,3.7054,3.7118,3.7158,3.7236,3.7297,3.7358,3.7387,3.7391,3.7394,3.7406,3.74,3.7387,3.7394,3.7276,3.7391,3.739,3.7389,3.7389,3.7389,3.6725,3.6769,3.6824,3.6886,3.6927,3.6973,3.7018,3.7052,3.7107,3.7174,3.7187,3.7255,3.7305,3.7386,3.7418,3.747,3.746,3.7479,3.7483,3.7487,3.7488,3.738,3.7481,3.7481,3.7481,3.7481,3.748,0,3.6814,3.685,3.6907,3.6977,3.7025,3.7028,3.7082,3.7122,3.7182,3.7229,3.728,3.7353,3.7412,3.7453,3.7513,3.7546,3.755,3.7561,3.7558,3.7565,3.7494,3.7477,3.7557,3.7557,3.7557,3.7557,3.7557,3.7557,3.6866,3.6942,3.6963,3.7058,3.7093,3.7161,3.7192,3.7234,3.7272,3.7353,3.7404,3.7431,3.7476,3.7539,3.7593,3.7603,3.7624,3.7635,3.7645,3.7578,3.757,3.7562,3.7546,3.764,3.764,3.7712,3.7712,3.7713]}]]